Regional Weather Roundup
Issued by NWS Upton, NY

Current Version | Previous Version | Graphics & Text | Print | Product List | Glossary Off
Versions: 1 2 3 4 5 6 7 8 9 10 11 12 13 14 15 16 17 18 19 20 21 22 23 24 25 26 27

000
ASUS41 KOKX 172308
RWROKX

REGIONAL WEATHER ROUNDUP
NATIONAL WEATHER SERVICE NEW YORK NY
700 PM EDT THU AUG 17 2017

NOTE: "FAIR" INDICATES FEW OR NO CLOUDS BELOW 12,000 FEET WITH NO
SIGNIFICANT WEATHER AND/OR OBSTRUCTIONS TO VISIBILITY.

NYZ071-072-176-178-NJZ106-104-180000-
NEW YORK CITY METRO AREA

CITY           SKY/WX    TMP DP  RH WIND       PRES   REMARKS
Central Park   CLEAR     76  61  59 S5        30.00S
Bronx Bot Gard   N/A     77  59  53 NE5       30.00S
LaGuardia APRT MOCLDY    78  62  57 S10       29.97S
Kennedy INTL   MOCLDY    76  68  76 SE8       29.99S
Breezy Point     N/A     73 N/A N/A SE8         N/A
Newark/Liberty MOCLDY    75  66  73 SE8       29.97F
Teterboro      CLEAR     80  61  52 S10       29.96S
$$

NYZ177-179-078>081-180000-
LONG ISLAND NEW YORK

CITY           SKY/WX    TMP DP  RH WIND       PRES   REMARKS
Jones Beach      N/A     73 N/A N/A SE6         N/A
Matinecock PT    N/A     77 N/A N/A SE3         N/A
Farmingdale    CLEAR     74  63  68 S8        29.99S
MacArthur/ISP  PTCLDY    74  63  68 S7        29.99S
Shirley        CLEAR     75  63  66 S6        30.00S
Mt Sinai Harb    N/A    N/A N/A N/A S6          N/A
Westhampton    CLEAR     72  58  61 S6        30.02S
East Hampton   FAIR      71  58  64 S3        30.00S
Montauk          N/A     73  61  65 VRB3      30.01
$$

NYZ052-065-067-180000-
HUDSON VALLEY

CITY           SKY/WX    TMP DP  RH WIND       PRES   REMARKS
White Plains   CLEAR     75  60  59 S7        29.98F
Larchmont Harb   N/A     77 N/A N/A SE8         N/A
Croton On Huds   N/A     79 N/A N/A SE5G10      N/A
Newburgh       PTCLDY    79  66  65 VRB7      29.98S
Montgomery     MOCLDY    79  66  64 S6        29.95F
Poughkeepsie   PTCLDY    80  62  54 S6        29.94F
Albany         CLOUDY    75  52  44 S5        29.96F
$$

NJZ001-105-106-008-010-013-015-019>022-104-180000-
NEW JERSEY

CITY           SKY/WX    TMP DP  RH WIND       PRES   REMARKS
Newark/Liberty MOCLDY    75  66  73 SE8       29.97F
Teterboro      CLEAR     80  61  52 S10       29.96S
Caldwell       CLEAR     80  66  62 S6        29.97S
Somerville     CLEAR     80  68  66 VRB3      29.95S
Linden         FAIR      77  65  66 S9        29.98S
Perth Amboy      N/A     75 N/A N/A E9          N/A
Sussex         CLEAR     78  67  68 CALM      29.97S
Andover          N/A     77  68  73 CALM      29.97F
Trenton        PTCLDY    82  70  66 SE10      29.95S
Millville      LGT RAIN  79  75  87 VRB3      29.97R
Atlantic City  MOCLDY    82  71  69 VRB6      29.98R
Wrightstown    CLEAR     81  69  67 SE6       29.94R
Toms River     CLEAR     81  72  74 SE5       29.98S
Belmar         CLEAR     77  71  82 SE8       29.99F
$$

PAZ047>061-062-071-180000-
EASTERN PENNSYLVANIA

CITY           SKY/WX    TMP DP  RH WIND       PRES   REMARKS
Philadelphia   MOCLDY    84  66  54 S13       29.96R
Allentown      PTCLDY    84  64  50 S6        29.95S
Scranton       PTCLDY    80  66  62 VRB5      29.95F
$$

CTZ002-004>006-009-010-012-RIZ004-006-007-MAZ004-011-015-180000-
SOUTHERN NEW ENGLAND
 IN CT

CITY           SKY/WX    TMP DP  RH WIND       PRES   REMARKS
Bradley INTL   PTCLDY    78  59  51 SW7       29.97S
Hartford       PTCLDY    78  59  51 S7        29.96S
Danbury        CLEAR     76  60  57 S7        30.00R
Wtrbury/Oxford PTCLDY    73  59  61 S9        30.01S
Norwalk Harbor   N/A     75 N/A N/A S9          N/A
Bridgeport     CLEAR     77  61  57 S8        29.99S
Meriden        CLEAR     75  57  53 S7        29.98S
New Haven      CLEAR     75  58  55 S9        30.00R
Chester        NOT AVBL
Groton         PTCLDY    71  62  73 S7        29.99S
Wilimantic     MOCLDY    77  60  55 S8        29.98S

 IN RI

CITY           SKY/WX    TMP DP  RH WIND       PRES   REMARKS
Providence     CLOUDY    72  59  63 S10       30.00S
Block Island   PTCLDY    72  60  66 S7        30.01S
Westerly       PTCLDY    74  58  57 SW6       30.01S
 IN MA

CITY           SKY/WX    TMP DP  RH WIND       PRES   REMARKS
Boston         MOCLDY    81  45  28 VRB7      29.96S
Worcester      PTCLDY    73  48  41 CALM      30.01S
Westfield      PTCLDY    76  58  53 SE5       29.97S
Provincetown   CLEAR     71  61  70 S10       29.99S
Nantucket      PTCLDY    65  59  81 SW6       30.00F
$$

ANZ330-335-338-340-345-350-353-355-180000-
COASTAL MARINE OBSERVATIONS


STATION/POSITION TIME  SKY/WX   TEMP    WIND        PRES    VSBY  WAVE
                                AIR SEA DIR/SP/G                  HT/PER
                 (UTC)          (F)     (DEG/KT/KT) (MB)    (MI)  (FT/S)
NY HARB ENTRANCE 2150            74 76  140/ 10/ 12 1014.7          2/ 8
GREAT SOUTH BAY  2215            72 78  160/  6/  8   N/A
23 SSW MONTAUK P 2150            71 72              1016.3          3/ 8
15 E BARNEGAT LI 2230               78                N/A           2/ 8
HUDSON CANYON    2150            76 77  200/  6/  8 1014.9          3/ 8
KINGS POINT      2230            76 74  200/ 11/ 11 1015.2
EXECUTION ROCKS  NOT AVBL
WESTERN LI SOUND NOT AVBL
CENTRAL LI SOUND NOT AVBL
EASTERN LI SOUND NOT AVBL
ROBBINS REEF     2212                   170/ 13/ 14 1015.8
$$


>>>>>>>>>>>>>>>>>>>>>>>>>>>> KEY <<<<<<<<<<<<<<<<<<<<<<<<<<<
>                                                          <
>     SKY/WX - Sky Condition/Present Weather               <
>     TMP    - Temperature in Fahrenheit                   <
>     DP     - Dew Point in Fahrenheit                     <
>     RH     - Relative Humidity in Percent                <
>     WIND   - Direction (from) and Speed in MPH           <
>     PRES   - Mean Sea Level Pressure (inches of Hg)      <
>     WCI    - Wind Chill Index                            <
>     VSB    - VISIBILITY IN MILES                         <
>     HX     - HEAT INDEX                                  <
>     TC     - TEMPERATURE IN CELSIUS                      <
>     VRB    - VARIABLE WIND DIRECTION                     <
>                                                          <
>>>>>>>>>>>>>>>>>>>>>>>>>>>> KEY <<<<<<<<<<<<<<<<<<<<<<<<<<<




USA.gov is the U.S. government's official web portal to all federal, state and local government web resources and services.